DG5MLB Weather Reports


Display with metric or nautical units.
time (UTC)temp
F
wind
direction
speed
MPH
gust
MPH
rain 1hr
in
rain 24hr
in
rain mn
in
humidity
%
barometer
mb
20200603233044 61 238 3.0 9.0 0.00 0.00 0.00 65 998.8
20200603230038 61 259 3.0 7.0 0.00 0.00 0.00 65 999.3
20200603224715 61 182 2.0 5.0 0.00 0.00 0.00 64 999.3
20200603223107 61 229 2.0 6.0 0.00 0.00 0.00 61 999.4
20200603221612 62 257 2.0 4.0 0.00 0.00 0.00 60 999.3
20200603220027 61 270 3.0 7.0 0.00 0.00 0.00 60 999.3
20200603214651 60 226 1.0 6.0 0.00 0.00 0.00 64 999.4
20200603213106 59 227 1.0 3.0 0.00 0.00 0.00 70 999.6
20200603211714 59 215 0.0 0.0 0.00 0.00 0.00 71 999.6
20200603210059 59 215 0.0 0.0 0.00 0.00 0.00 70 999.7
20200603203128 60 215 0.0 1.0 0.00 0.00 0.00 67 999.9
20200603201504 61 215 0.0 2.0 0.00 0.00 0.00 66 1000.0
20200603200117 62 217 1.0 3.0 0.00 0.00 0.00 64 1000.2
20200603194515 63 236 0.0 0.0 0.00 0.00 0.00 63 1000.2
20200603193055 64 236 0.0 0.0 0.00 0.00 0.00 61 1000.1
20200603191516 66 236 0.0 0.0 0.00 0.00 0.00 58 1000.0
20200603190104 68 238 0.0 0.0 0.00 0.00 0.00 52 999.9
20200603184513 69 240 0.0 3.0 0.00 0.00 0.00 49 999.8
20200603183105 70 225 1.0 4.0 0.00 0.00 0.00 48 999.7
20200603181520 71 232 2.0 5.0 0.00 0.00 0.00 46 999.5
20200603180116 72 325 4.0 7.0 0.00 0.00 0.00 49 999.6
20200603174548 72 207 1.0 5.0 0.00 0.00 0.00 46 999.5
20200603173200 72 220 1.0 5.0 0.00 0.00 0.00 46 999.4
20200603171535 72 168 2.0 4.0 0.00 0.00 0.00 47 999.5
20200603170128 72 199 0.0 4.0 0.00 0.00 0.00 47 999.5
20200603164606 72 184 2.0 5.0 0.00 0.00 0.00 44 999.7
20200603163211 73 139 2.0 4.0 0.00 0.00 0.00 41 999.8
20200603161536 73 210 1.0 8.0 0.00 0.00 0.00 39 1000.2
20200603160224 75 196 2.0 5.0 0.00 0.00 0.00 38 1000.4
20200603154530 76 194 1.0 4.0 0.00 0.00 0.00 40 1000.6
20200603153316 76 290 2.0 3.0 0.00 0.00 0.00 36 1000.7
20200603151538 77 281 3.0 6.0 0.00 0.00 0.00 35 1000.9
20200603150108 77 287 2.0 5.0 0.00 0.00 0.00 34 1001.1
20200603144527 77 299 2.0 9.0 0.00 0.00 0.00 34 1001.2
20200603143120 76 321 4.0 8.0 0.00 0.00 0.00 34 1001.3
20200603141525 77 316 5.0 9.0 0.00 0.00 0.00 33 1001.3
20200603140149 77 331 4.0 6.0 0.00 0.00 0.00 33 1001.5
20200603134544 78 315 3.0 10.0 0.00 0.00 0.00 32 1001.7
20200603133110 78 260 2.0 9.0 0.00 0.00 0.00 31 1002.0
20200603131524 77 151 2.0 10.0 0.00 0.00 0.00 32 1002.2
20200603130137 77 238 3.0 12.0 0.00 0.00 0.00 32 1002.5
20200603124556 78 300 6.0 11.0 0.00 0.00 0.00 31 1002.7
20200603123118 77 244 2.0 7.0 0.00 0.00 0.00 32 1002.9
20200603121538 76 186 4.0 7.0 0.00 0.00 0.00 30 1002.9
20200603120145 78 295 3.0 9.0 0.00 0.00 0.00 27 1003.2
20200603114545 79 158 2.0 6.0 0.00 0.00 0.00 28 1003.5
20200603113149 77 315 3.0 7.0 0.00 0.00 0.00 29 1003.7
20200603111535 77 305 6.0 11.0 0.00 0.00 0.00 28 1003.9
20200603110113 77 306 4.0 10.0 0.00 0.00 0.00 30 1004.0
20200603104517 77 184 3.0 5.0 0.00 0.00 0.00 29 1004.2
20200603103116 76 271 3.0 6.0 0.00 0.00 0.00 32 1004.3
20200603101509 76 336 4.0 6.0 0.00 0.00 0.00 32 1004.5
20200603100104 77 229 3.0 5.0 0.00 0.00 0.00 31 1004.7
20200603094518 75 320 3.0 8.0 0.00 0.00 0.00 35 1004.9
20200603093056 74 338 2.0 9.0 0.00 0.00 0.00 33 1005.1
20200603091512 75 166 2.0 8.0 0.00 0.00 0.00 35 1005.4
20200603090105 74 200 3.0 7.0 0.00 0.00 0.00 33 1005.6
20200603084635 73 273 1.0 5.0 0.00 0.00 0.00 38 1005.7
20200603083044 73 230 2.0 8.0 0.00 0.00 0.00 37 1005.8
20200603081502 72 194 4.0 7.0 0.00 0.00 0.00 41 1006.0
20200603080134 70 242 2.0 6.0 0.00 0.00 0.00 44 1006.1
20200603074604 69 275 2.0 8.0 0.00 0.00 0.00 48 1006.2
20200603073259 69 240 3.0 7.0 0.00 0.00 0.00 47 1006.2
20200603071653 68 193 4.0 8.0 0.00 0.00 0.00 47 1006.4
20200603070207 67 201 3.0 8.0 0.00 0.00 0.00 47 1006.5
20200603064615 66 223 2.0 5.0 0.00 0.00 0.00 51 1006.5
20200603063209 65 198 3.0 6.0 0.00 0.00 0.00 53 1006.6
20200603061508 63 195 2.0 7.0 0.00 0.00 0.00 56 1006.7
20200603060048 62 142 1.0 8.0 0.00 0.00 0.00 58 1006.8
20200603054506 60 213 2.0 5.0 0.00 0.00 0.00 60 1006.9
20200603053112 59 186 2.0 6.0 0.00 0.00 0.00 62 1007.0
20200603051723 58 223 1.0 6.0 0.00 0.00 0.00 64 1007.0
20200603050056 56 173 1.0 5.0 0.00 0.00 0.00 66 1007.1
20200603044634 55 183 2.0 6.0 0.00 0.00 0.00 67 1007.1
20200603043041 54 207 2.0 6.0 0.00 0.00 0.00 69 1007.2
20200603041622 53 173 1.0 4.0 0.00 0.00 0.00 70 1007.2
20200603040022 53 181 1.0 4.0 0.00 0.00 0.00 71 1007.3
20200603034648 52 203 2.0 7.0 0.00 0.00 0.00 72 1007.4
20200603033033 52 182 1.0 3.0 0.00 0.00 0.00 72 1007.5
20200603031630 52 165 1.0 3.0 0.00 0.00 0.00 72 1007.6
20200603030018 52 192 0.0 2.0 0.00 0.00 0.00 72 1007.6
20200603024549 52 182 0.0 2.0 0.00 0.00 0.00 71 1007.7
20200603023044 52 189 1.0 3.0 0.00 0.00 0.00 71 1007.9
20200603021600 53 194 1.0 5.0 0.00 0.00 0.00 71 1008.0
20200603020339 53 177 2.0 4.0 0.00 0.00 0.00 70 1008.2